Location: Kalberh�ni
(46.4610°N, 7.2453°E)
Time: 02:28:06
(UTC+00:00)

USA 32 - Pass Details

Date: 20 June 2021
Orbit: 777 x 783 km, 85.0° (Epoch: 15 July)

Event Time Altitude Azimuth Distance (km) Brightness Sun altitude
Rises 22:43:47 0° 358° (N) 3,276 8.8 -19.2°
Reaches altitude 10° 22:46:13 10° 3° (N) 2,342 7.6 -19.3°
Maximum altitude 22:51:21 52° 80° (E) 965 4.4 -19.5°
Enters shadow 22:53:23 33° 138° (SE) 1,286 4.7 -19.5°
